sat.trackr.live / text

‹ back to catalog

ONEWEB-0578

NORAD 56067 · 2023-043X

PAYLOAD ACTIVE UNKNOWN

§ Identity

Operator
Country
UK
Launch date
2023-03-26
Launch site
SRILR
Launch vehicle
Mass (kg)
RCS (m²)

Purposes: comms

External: N2YO · Heavens-Above · Gunter

§ Orbital elements

Epoch: 2026-09-20T04:15:20.955168Z

Period
108.94 min
Inclination
87.9283°
Eccentricity
0.0002017
Mean motion
13.21826193 rev/d
Perigee alt
1,176.2 km
Apogee alt
1,179.3 km
Semi-major
7,555.9 km
B*
2.1346e-4
RAAN
225.0668°
Arg perigee
88.8805°
Mean anomaly
271.2560°
Rev number
17,078

§ Raw data

ONEWEB-05781 56067U 23043X   26263.17732587  .00000101  00000+0  21346-3 0  99952 56067  87.9283 225.0668 0002017  88.8805 271.2560 13.21826193170781

JSON: /api/v1/satellites/56067 · /tle

For live sub-satellite position, see the globe view (requires WebGL).

§ Visibility from observer

Set your observer location to see the next 7 days of passes ≥ 10°. The values pass through the URL so the page stays shareable.

No JS? Fill the form by hand. The geolocation button needs JavaScript.